Date,TemperatureHighF,TemperatureAvgF,TemperatureLowF,DewpointHighF,DewpointAvgF,DewpointLowF,HumidityHigh,HumidityAvg,HumidityLow,PressureMaxIn,PressureMinIn,WindSpeedMaxMPH,WindSpeedAvgMPH,GustSpeedMaxMPH,PrecipitationSumIn
2013-4-1,91,77,67,82,66,49,100,72,35,30.05,29.92,10,2,19,0.00
2013-4-2,88,74,66,81,49,-100,100,74,1,30.08,29.95,5,1,12,0.00
2013-4-3,86,77,69,84,69,-100,100,88,8,30.05,29.97,7,2,17,0.00
2013-4-4,88,76,70,88,69,-100,100,91,53,30.03,29.89,16,3,39,0.42
2013-4-5,72,69,65,66,-71,-100,81,14,81,29.97,29.80,6,2,17,0.29
2013-4-6,77,68,59,77,-31,-100,100,35,1,30.04,29.89,8,3,18,0.01
2013-4-7,78,73,69,78,73,69,100,100,100,30.12,30.00,7,2,16,0.00
2013-4-8,84,73,61,80,55,-100,100,81,3,30.12,30.02,6,1,13,0.00
2013-4-9,83,75,71,83,74,-100,100,99,79,30.13,30.02,8,3,17,0.05
2013-4-10,85,77,71,85,76,59,100,98,65,30.08,29.97,8,3,21,0.00
2013-4-11,86,79,75,86,74,-100,100,92,61,30.00,29.86,10,4,22,0.00
2013-4-12,90,81,77,90,75,64,100,83,58,29.95,29.84,9,4,20,0.13
2013-4-13,87,76,72,86,33,-100,100,64,63,29.96,29.85,5,0,13,0.15
2013-4-14,88,79,71,87,2,-100,100,52,62,29.96,29.87,8,2,21,0.00
2013-4-15,91,78,71,91,-11,-100,100,44,55,30.04,29.90,12,1,24,0.78
2013-4-16,85,77,71,85,-16,-100,100,38,57,30.11,30.00,8,2,17,0.00
2013-4-17,84,78,72,84,71,-100,100,88,61,30.11,30.00,7,2,14,0.00
2013-4-18,87,80,73,87,64,-100,100,83,54,30.05,29.95,9,3,17,0.00
2013-4-19,90,82,76,87,70,-100,100,75,50,30.04,29.93,9,4,22,0.00
2013-4-20,90,78,72,90,38,-100,100,65,52,30.07,29.94,8,1,16,0.30
2013-4-21,85,78,72,85,21,-100,100,65,81,30.09,29.95,9,2,16,0.00
2013-4-22,86,76,72,86,63,-100,100,84,67,30.04,29.91,8,1,15,0.00
2013-4-23,84,76,68,83,57,-100,100,80,65,30.07,29.92,11,4,21,0.00
2013-4-24,85,77,69,79,70,-100,100,85,57,30.11,30.01,6,2,15,0.00
2013-4-25,84,76,68,77,67,-100,100,78,48,30.18,30.06,7,1,17,0.01
2013-4-26,84,76,66,77,69,-100,100,82,61,30.21,30.09,8,2,18,0.00
2013-4-27,83,78,72,71,68,63,87,73,51,30.19,30.07,8,3,21,0.00
2013-4-28,84,78,73,69,66,62,82,69,49,30.10,29.98,8,4,17,0.00
2013-4-29,87,78,72,77,72,66,100,82,60,30.02,29.92,7,2,19,0.00
2013-4-30,86,77,71,86,75,65,100,94,80,29.98,29.89,9,1,17,0.11